Iowa City, IA

9:38 PM CDT on September 30, 2016 (GMT -0500)
Iowa City Municipal

Weather History for KIOW - March, 2014

Change the Weather History Date:

Saturday, March 15, 2014

  Actual Average Record
Temperature  
Mean Temperature 36 °F 38 °F  
Max Temperature 46 °F 48 °F 79 °F (2012)
Min Temperature 25 °F 29 °F 8 °F (1962)
Degree Days  
Heating Degree Days 29 27  
Month to date heating degree days 572 454  
Since 1 July heating degree days 6365 5404  
Cooling Degree Days 0 0  
Month to date cooling degree days 0 0  
Year to date cooling degree days 0 0  
Moisture  
Dew Point 27 °F    
Average Humidity 67    
Maximum Humidity 92    
Minimum Humidity 42    
Precipitation  
Precipitation 0.00 in 0.07 in 0.73 in (2001)
Month to date precipitation 0.15 1.09  
Year to date precipitation 1.98 3.25  
Sea Level Pressure  
Sea Level Pressure 30.13 in    
Wind  
Wind Speed 9 mph (NE)    
Max Wind Speed 22 mph    
Max Gust Speed 26 mph    
Visibility 8 miles    
Events Snow    
T = Trace of Precipitation, MM = Missing Value Source: NWS Daily Summary

Daily Weather History Graph

Daily Weather History Graph

Search for Another Location

Airport or City:

Trip Planner

Search our weather history database for the weather conditions in past years. The results will help you decide how hot, cold, wet, or windy it might be!

Date:

Astronomy

Mar. 15, 2014 Rise Set
Actual Time 7:17 AM CDT 7:12 PM CDT
Civil Twilight 6:50 AM CDT 7:40 PM CDT
Nautical Twilight 6:18 AM CDT 8:12 PM CDT
Astronomical Twilight 5:45 AM CDT 8:45 PM CDT
Moon 6:32 PM CDT (3/15) 6:30 AM CDT (3/15)
Length of Visible Light 12h 50m
Length of Day
11h 54m
Waxing Gibbous, 99% of the Moon is Illuminated
Mar 15
Waxing Gibbous
Mar 16
Full
Mar 23
Last Quarter
Mar 30
New
Apr 7
First Quarter

Hourly Weather History & Observations

Time (CDT) Temp. Windchill Dew Point Humidity Pressure Visibility Wind Dir Wind Speed Gust Speed Precip Events Conditions
12:52 AM 36.0 °F 29.6 °F 28.9 °F 76% 29.99 in 10.0 mi NW 8.1 mph - N/A   Clear
1:52 AM 37.0 °F 31.6 °F 30.0 °F 76% 30.00 in 10.0 mi NW 6.9 mph - N/A   Clear
2:52 AM 28.9 °F 25.2 °F 26.1 °F 89% 30.01 in 10.0 mi WNW 3.5 mph - N/A   Clear
3:52 AM 28.0 °F - 26.1 °F 92% 30.02 in 10.0 mi Calm Calm - N/A   Clear
4:52 AM 27.0 °F - 24.1 °F 89% 30.03 in 10.0 mi Calm Calm - N/A   Clear
5:52 AM 26.1 °F - 24.1 °F 92% 30.05 in 10.0 mi Calm Calm - N/A   Clear
6:52 AM 26.1 °F - 24.1 °F 92% 30.05 in 10.0 mi Calm Calm - N/A   Overcast
7:52 AM 28.9 °F - 27.0 °F 92% 30.07 in 10.0 mi Calm Calm - N/A   Mostly Cloudy
8:52 AM 33.1 °F 27.7 °F 26.1 °F 75% 30.09 in 10.0 mi NE 5.8 mph - N/A   Clear
9:52 AM 34.0 °F 27.2 °F 24.1 °F 67% 30.10 in 10.0 mi NE 8.1 mph - N/A   Clear
10:52 AM 36.0 °F 29.6 °F 24.1 °F 62% 30.12 in 10.0 mi ENE 8.1 mph - N/A   Mostly Cloudy
11:52 AM 37.9 °F 31.5 °F 24.1 °F 57% 30.12 in 10.0 mi ENE 9.2 mph - N/A   Overcast
12:52 PM 41.0 °F 34.7 °F 25.0 °F 53% 30.12 in 10.0 mi East 10.4 mph - N/A   Partly Cloudy
1:52 PM 44.1 °F 38.6 °F 26.1 °F 49% 30.11 in 10.0 mi East 10.4 mph - N/A   Clear
2:52 PM 45.0 °F 38.9 °F 26.1 °F 48% 30.09 in 10.0 mi East 12.7 mph - N/A   Mostly Cloudy
3:52 PM 46.0 °F 39.6 °F 24.1 °F 42% 30.09 in 10.0 mi ENE 15.0 mph 20.7 mph N/A   Partly Cloudy
4:52 PM 45.0 °F 37.4 °F 28.0 °F 52% 30.10 in 10.0 mi NE 18.4 mph - N/A   Overcast
5:52 PM 42.1 °F 34.2 °F 26.1 °F 53% 30.13 in 10.0 mi ENE 16.1 mph - N/A   Mostly Cloudy
6:52 PM 37.9 °F 30.5 °F 26.1 °F 62% 30.17 in 10.0 mi NE 11.5 mph - N/A   Mostly Cloudy
7:52 PM 35.1 °F 25.5 °F 24.1 °F 64% 30.19 in 10.0 mi NE 15.0 mph - N/A   Clear
8:52 PM 34.0 °F 24.2 °F 26.1 °F 73% 30.20 in 10.0 mi NE 15.0 mph 19.6 mph N/A   Clear
9:52 PM 34.0 °F 25.5 °F 27.0 °F 75% 30.24 in 10.0 mi NE 11.5 mph 20.7 mph N/A   Overcast
10:41 PM 33.1 °F 22.2 °F 28.9 °F 85% 30.21 in 1.8 mi NE 17.3 mph - 0.00 in Snow Light Snow
10:49 PM 32.0 °F 21.2 °F 28.4 °F 87% 30.22 in 1.5 mi NE 16.1 mph 24.2 mph 0.00 in Snow Light Snow
10:52 PM 32.0 °F 20.8 °F 30.0 °F 92% 30.24 in 1.5 mi NE 17.3 mph 24.2 mph 0.00 in Snow Light Snow
11:21 PM 32.0 °F 23.0 °F 28.9 °F 88% 30.23 in 2.5 mi NE 11.5 mph 19.6 mph 0.00 in Snow Light Snow
11:29 PM 32.0 °F 22.1 °F 28.9 °F 88% 30.23 in 2.5 mi NE 13.8 mph 21.9 mph 0.00 in Snow Light Snow
11:42 PM 30.9 °F 21.2 °F 28.9 °F 92% 30.23 in 1.8 mi NE 12.7 mph - 0.00 in Snow Light Snow
11:52 PM 30.9 °F 21.2 °F 28.9 °F 92% 30.25 in 1.2 mi NE 12.7 mph - 0.00 in Snow Light Snow
11:59 PM 30.9 °F 21.2 °F 28.9 °F 92% 30.23 in 1.0 mi NE 12.7 mph - 0.00 in Snow Light Snow